Location: Bright Sky Observatory
(40.7821°N, 74.2425°W)
Time: 07:58:56
(UTC-04:00)

Amateur Radio Satellites - All Passes

Search period start: 29 August 2014 07:28
Search period end: 30 August 2014 07:28
Location: Bright Sky Observatory, 40.7821°N, 74.2425°W

Satellite Date Start Highest point End Downlink Frequencies (MHz)
Time Altitude Azimuth
SO-67 29 Aug 07:34:42 07:37:45 28° 96° (E) 07:40:46 435.3500 MHz FM
RS-15 29 Aug 07:36:59 07:47:21 48° 110° (ESE) 07:57:32 29.354 - 29.394 USB, Beacon 29.352 USB
AO-7 29 Aug 07:40:37 07:46:11 20° 309° (NW) 07:51:45 29.400 - 29.500 MHz
Saudisat 1A 29 Aug 08:01:34 08:05:58 66° 55° (NE) 08:10:20 436.775 MHz
KITSAT 1 29 Aug 08:11:16 08:18:45 39° 47° (NE) 08:26:11 435.175 FM
STRAND 1 29 Aug 08:19:56 08:22:52 15° 269° (W) 08:25:48 ?
JAS-2 29 Aug 08:24:06 08:28:02 22° 295° (WNW) 08:32:07 435.800 - 435.900 CW/SSB, 435.910 FM
SO-67 29 Aug 09:08:25 09:10:34 16° 292° (WNW) 09:12:42 435.3500 MHz FM
HO-68 29 Aug 09:22:36 09:29:08 37° 98° (E) 09:35:37 435.675 MHz FM
Saudisat 1A 29 Aug 09:43:04 09:44:59 13° 252° (WSW) 09:46:54 436.775 MHz
RS-15 29 Aug 09:48:54 09:59:34 52° 313° (NW) 10:10:12 29.354 - 29.394 USB, Beacon 29.352 USB
KITSAT 1 29 Aug 10:06:37 10:14:22 52° 248° (WSW) 10:22:04 435.175 FM
UKube-1 29 Aug 10:14:38 10:18:55 55° 101° (E) 10:23:10 145.840 MHz, 145.915 MHz
Oscar 11 29 Aug 10:22:35 10:26:47 44° 99° (E) 10:30:56 145.825 FM, Beacon 2401.500 USB
FUNcube-1 29 Aug 10:43:42 10:47:42 30° 96° (E) 10:51:44 145.950 - 145.970 MHz USB
HO-68 29 Aug 11:10:13 11:16:51 43° 295° (WNW) 11:23:28 435.675 MHz FM
ISS 29 Aug 11:25:21 11:28:39 72° 141° (SE) 11:31:59 145.800 FM
SO-50 29 Aug 11:49:26 11:52:45 18° 42° (NE) 11:56:05 436.795 FM
UKube-1 29 Aug 11:52:22 11:54:39 14° 297° (WNW) 11:56:56 145.840 MHz, 145.915 MHz
Oscar 11 29 Aug 11:59:45 12:02:36 17° 295° (WNW) 12:05:27 145.825 FM, Beacon 2401.500 USB
RS-15 29 Aug 12:07:24 12:15:19 22° 344° (NNW) 12:23:19 29.354 - 29.394 USB, Beacon 29.352 USB
FUNcube-1 29 Aug 12:20:14 12:23:58 26° 292° (WNW) 12:27:45 145.950 - 145.970 MHz USB
MaSat-1 29 Aug 12:35:03 12:37:32 14° 99° (E) 12:40:07 437.345 MHz
Oscar 19 29 Aug 12:44:07 12:48:18 26° 66° (ENE) 12:52:31 437.125 CW, 437.150 USB
JAS-1B 29 Aug 12:58:14 13:06:08 30° 61° (ENE) 13:13:24 435.800 - 435.900 CW/SSB
ISS 29 Aug 13:03:03 13:05:41 21° 339° (NNW) 13:08:20 145.800 FM
ITAMSAT 1 29 Aug 13:13:19 13:17:11 22° 64° (ENE) 13:21:04 435.822 SSB
PANSAT 29 Aug 13:13:40 13:14:40 11° 170° (S) 13:15:39 not established
Oscar 16 29 Aug 13:17:43 13:22:43 54° 72° (ENE) 13:27:46 437.025 USB, Beacon 2401.1428
Uribyol 2 29 Aug 13:23:08 13:27:27 28° 66° (ENE) 13:31:48 436.500 FM
AO-Echo 29 Aug 13:23:49 13:28:05 28° 68° (ENE) 13:32:15 ?
SO-50 29 Aug 13:29:01 13:33:48 71° 240° (WSW) 13:38:37 436.795 FM
AO-27 29 Aug 13:40:50 13:45:36 39° 69° (ENE) 13:50:23 436.795 MHz FM
UOSAT-12 29 Aug 13:57:38 14:01:29 24° 45° (NE) 14:05:17 437.025 FM, 437.400 FM
Gurwin Techsat 1B 29 Aug 14:00:40 14:05:03 27° 66° (ENE) 14:09:28 435.225 FM
MaSat-1 29 Aug 14:09:01 14:13:51 71° 297° (WNW) 14:19:01 437.345 MHz
Oscar 19 29 Aug 14:22:38 14:27:26 39° 262° (W) 14:32:17 437.125 CW, 437.150 USB
RS-15 29 Aug 14:24:51 14:33:10 24° 21° (NNE) 14:41:38 29.354 - 29.394 USB, Beacon 29.352 USB
ISS 29 Aug 14:41:47 14:43:23 13° 360° (N) 14:44:59 145.800 FM
JAS-1B 29 Aug 14:46:05 14:55:57 74° 257° (WSW) 15:04:57 435.800 - 435.900 CW/SSB
ITAMSAT 1 29 Aug 14:51:23 14:56:21 47° 260° (W) 15:01:20 435.822 SSB
TMSAT-1 29 Aug 14:52:15 14:57:25 58° 72° (ENE) 15:02:37 436.925 FM
PANSAT 29 Aug 14:52:15 14:54:05 13° 183° (S) 14:55:54 not established
AO-7 29 Aug 14:54:00 15:00:48 29° 56° (NE) 15:07:34 29.400 - 29.500 MHz
Oscar 16 29 Aug 14:58:58 15:02:24 18° 268° (W) 15:05:51 437.025 USB, Beacon 2401.1428
Uribyol 2 29 Aug 15:02:06 15:06:47 35° 263° (W) 15:11:30 436.500 FM
AO-Echo 29 Aug 15:02:12 15:06:44 33° 263° (W) 15:11:11 ?
AO-27 29 Aug 15:21:00 15:25:13 25° 265° (W) 15:29:27 436.795 MHz FM
UOSAT-12 29 Aug 15:37:20 15:41:51 46° 243° (WSW) 15:46:18 437.025 FM, 437.400 FM
Gurwin Techsat 1B 29 Aug 15:39:55 15:44:50 38° 262° (W) 15:49:47 435.225 FM
MaSat-1 29 Aug 15:49:55 15:51:51 12° 316° (NW) 15:53:49 437.345 MHz
Uosat F 29 Aug 15:50:57 15:55:37 41° 70° (ENE) 16:00:17 435.120 FM
PCSat 29 Aug 15:58:35 15:59:59 11° 102° (ESE) 16:01:24 145.825 MHz
ISS 29 Aug 16:18:28 16:21:05 21° 20° (NNE) 16:23:42 145.800 FM
TMSAT-1 29 Aug 16:34:18 16:37:42 17° 269° (W) 16:41:08 436.925 FM
RS-15 29 Aug 16:37:36 16:48:32 60° 50° (NE) 16:59:49 29.354 - 29.394 USB, Beacon 29.352 USB
JAS-1B 29 Aug 16:42:04 16:47:27 16° 273° (W) 16:52:39 435.800 - 435.900 CW/SSB
AO-7 29 Aug 16:44:39 16:52:56 68° 255° (WSW) 17:01:16 29.400 - 29.500 MHz
JAS-2 29 Aug 16:51:40 16:55:56 20° 64° (ENE) 16:59:56 435.800 - 435.900 CW/SSB, 435.910 FM
Oscar 10/S400 29 Aug 16:54:19 17:10:22 29° 145° (SE) 17:30:40 145.825 - 145.975 CW/USB, Beacon 145.810 USB
OPAL 29 Aug 17:07:39 17:12:39 44° 101° (E) 17:17:35 ?
Sapphire 29 Aug 17:07:51 17:12:59 46° 112° (ESE) 17:18:09 437.095 MHz 1200 baud AX-25 AFSK
Uosat F 29 Aug 17:30:37 17:34:32 23° 266° (W) 17:38:27 435.120 FM
PCSat 29 Aug 17:37:08 17:42:33 89° 118° (ESE) 17:48:00 145.825 MHz
Hamsat 29 Aug 17:52:55 17:57:09 62° 75° (ENE) 18:01:28 145.90 MHz
ISS 29 Aug 17:54:48 17:58:08 76° 218° (SW) 18:01:27 145.800 FM
SO-67 29 Aug 18:10:08 18:10:39 10° 65° (ENE) 18:11:10 435.3500 MHz FM
JAS-2 29 Aug 18:34:28 18:40:42 59° 259° (WSW) 18:46:16 435.800 - 435.900 CW/SSB, 435.910 FM
AO-7 29 Aug 18:44:52 18:47:08 11° 273° (W) 18:49:25 29.400 - 29.500 MHz
OPAL 29 Aug 18:47:06 18:51:15 25° 297° (WNW) 18:55:23 ?
STRAND 1 29 Aug 18:49:56 18:53:46 21° 94° (E) 18:57:34 ?
RS-15 29 Aug 18:50:26 19:00:29 42° 252° (WSW) 19:10:57 29.354 - 29.394 USB, Beacon 29.352 USB
Sapphire 29 Aug 18:52:02 18:56:36 27° 311° (NW) 19:01:12 437.095 MHz 1200 baud AX-25 AFSK
PCSat 29 Aug 19:23:19 19:26:43 17° 318° (NW) 19:30:07 145.825 MHz
Hamsat 29 Aug 19:32:12 19:33:32 11° 271° (W) 19:34:51 145.90 MHz
SO-67 29 Aug 19:39:55 19:43:16 46° 261° (W) 19:46:38 435.3500 MHz FM
HO-68 29 Aug 19:51:36 19:57:27 28° 60° (ENE) 20:03:17 435.675 MHz FM
STRAND 1 29 Aug 20:28:18 20:33:09 45° 290° (WNW) 20:37:59 ?
UKube-1 29 Aug 21:09:51 21:14:00 46° 72° (ENE) 21:18:11 145.840 MHz, 145.915 MHz
Oscar 11 29 Aug 21:17:29 21:21:22 34° 70° (ENE) 21:25:18 145.825 FM, Beacon 2401.500 USB
HO-68 29 Aug 21:37:42 21:44:42 58° 258° (WSW) 21:51:45 435.675 MHz FM
FUNcube-1 29 Aug 21:40:39 21:43:55 23° 67° (ENE) 21:47:14 145.950 - 145.970 MHz USB
Saudisat 1A 29 Aug 22:09:11 22:12:09 18° 110° (ESE) 22:15:07 436.775 MHz
MaSat-1 29 Aug 22:27:28 22:31:24 26° 53° (NE) 22:34:55 437.345 MHz
KITSAT 1 29 Aug 22:40:55 22:47:04 25° 104° (ESE) 22:53:14 435.175 FM
UKube-1 29 Aug 22:47:54 22:50:27 15° 267° (W) 22:53:00 145.840 MHz, 145.915 MHz
Oscar 11 29 Aug 22:54:21 22:57:37 21° 266° (W) 23:00:56 145.825 FM, Beacon 2401.500 USB
FUNcube-1 29 Aug 23:16:32 23:20:10 29° 264° (W) 23:23:54 145.950 - 145.970 MHz USB
Saudisat 1A 29 Aug 23:47:05 23:51:21 48° 307° (NW) 23:55:39 436.775 MHz
MaSat-1 30 Aug 00:04:27 00:08:23 30° 255° (WSW) 00:11:51 437.345 MHz
KITSAT 1 30 Aug 00:33:37 00:41:42 73° 303° (WNW) 00:49:49 435.175 FM
PCSat 30 Aug 00:43:58 00:46:20 13° 38° (NE) 00:48:41 145.825 MHz
Oscar 16 30 Aug 01:30:36 01:34:20 20° 93° (E) 01:38:02 437.025 USB, Beacon 2401.1428
AO-27 30 Aug 01:55:37 01:58:14 14° 90° (E) 02:00:49 436.795 MHz FM
Sapphire 30 Aug 01:56:01 02:01:02 36° 53° (NE) 02:06:00 437.095 MHz 1200 baud AX-25 AFSK
PCSat 30 Aug 02:25:24 02:30:49 67° 59° (ENE) 02:36:12 145.825 MHz
KITSAT 1 30 Aug 02:32:47 02:38:37 21° 326° (NW) 02:44:27 435.175 FM
Oscar 19 30 Aug 02:34:01 02:39:15 76° 103° (ESE) 02:44:25 437.125 CW, 437.150 USB
JAS-1B 30 Aug 02:34:58 02:40:51 32° 93° (E) 02:46:03 435.800 - 435.900 CW/SSB
OPAL 30 Aug 02:48:49 02:49:23 10° 54° (NE) 02:49:56 ?
ITAMSAT 1 30 Aug 03:04:14 03:09:23 63° 102° (ESE) 03:14:31 435.822 SSB
Oscar 16 30 Aug 03:08:55 03:13:56 50° 289° (WNW) 03:18:56 437.025 USB, Beacon 2401.1428
TMSAT-1 30 Aug 03:09:00 03:13:12 23° 94° (E) 03:17:22 436.925 FM
AO-Echo 30 Aug 03:09:01 03:13:44 81° 103° (ESE) 03:18:27 ?
Uribyol 2 30 Aug 03:14:25 03:19:38 84° 104° (ESE) 03:24:51 436.500 FM
AO-27 30 Aug 03:33:03 03:38:13 69° 287° (WNW) 03:43:22 436.795 MHz FM
Sapphire 30 Aug 03:39:34 03:44:22 32° 250° (WSW) 03:49:07 437.095 MHz 1200 baud AX-25 AFSK
SO-50 30 Aug 03:43:59 03:48:07 39° 116° (ESE) 03:52:22 436.795 FM
Gurwin Techsat 1B 30 Aug 03:55:52 04:01:12 87° 104° (ESE) 04:06:31 435.225 FM
Uosat F 30 Aug 04:00:54 04:02:52 12° 90° (E) 04:04:50 435.120 FM
PCSat 30 Aug 04:10:19 04:13:38 17° 256° (WSW) 04:16:56 145.825 MHz
Oscar 19 30 Aug 04:15:14 04:17:55 14° 300° (WNW) 04:20:36 437.125 CW, 437.150 USB
OPAL 30 Aug 04:22:18 04:27:20 76° 72° (ENE) 04:32:28 ?
JAS-1B 30 Aug 04:25:21 04:31:38 39° 296° (WNW) 04:37:07 435.800 - 435.900 CW/SSB
KITSAT 1 30 Aug 04:37:39 04:37:58 10° 357° (N) 04:38:17 435.175 FM
ITAMSAT 1 30 Aug 04:45:07 04:48:21 17° 298° (WNW) 04:51:35 435.822 SSB
AO-7 30 Aug 04:46:40 04:54:28 43° 100° (E) 05:02:11 29.400 - 29.500 MHz
TMSAT-1 30 Aug 04:48:17 04:53:16 43° 290° (WNW) 04:58:14 436.925 FM
AO-Echo 30 Aug 04:50:27 04:51:51 11° 300° (WNW) 04:53:14 ?
Uribyol 2 30 Aug 04:56:05 04:58:23 13° 301° (WNW) 05:00:41 436.500 FM
SO-50 30 Aug 05:25:04 05:28:48 25° 314° (NW) 05:32:38 436.795 FM
Uosat F 30 Aug 05:37:10 05:42:11 74° 286° (WNW) 05:47:09 435.120 FM
Gurwin Techsat 1B 30 Aug 05:38:08 05:40:24 13° 301° (WNW) 05:42:40 435.225 FM
Hamsat 30 Aug 05:41:14 05:42:44 12° 89° (E) 05:44:14 145.90 MHz
JAS-2 30 Aug 05:44:53 05:47:46 15° 92° (E) 05:50:44 435.800 - 435.900 CW/SSB, 435.910 FM
UOSAT-12 30 Aug 05:47:51 05:52:21 56° 118° (ESE) 05:56:57 437.025 FM, 437.400 FM
OPAL 30 Aug 06:04:44 06:06:46 12° 269° (W) 06:08:49 ?
STRAND 1 30 Aug 06:05:34 06:09:58 30° 67° (ENE) 06:14:23 ?
KITSAT 1 30 Aug 06:32:45 06:37:40 17° 28° (NNE) 06:42:34 435.175 FM
Saudisat 1A 30 Aug 06:35:22 06:38:18 17° 42° (NE) 06:41:13 436.775 MHz
AO-7 30 Aug 06:39:32 06:47:12 44° 298° (WNW) 06:54:51 29.400 - 29.500 MHz
RS-15 30 Aug 07:02:04 07:11:41 36° 106° (ESE) 07:21:06 29.354 - 29.394 USB, Beacon 29.352 USB
SO-67 30 Aug 07:05:37 07:06:54 12° 91° (E) 07:08:11 435.3500 MHz FM
Hamsat 30 Aug 07:14:47 07:19:06 61° 285° (WNW) 07:23:21 145.90 MHz
